Temp
-12 -12 -12 -11 -11 -11 -11 -11 -11 -11 -11 -11 -11 -11 -11 -11 -12 -12 -12 -12 -12 -12 -12 -12 -12 -12 -12 -12 -13 -13 -12 -12 -13 -12 -12 -12 -12 -12 -12 -12 -11 -12 -12 -11 -13 -13 -13
-12 -12 -12 -12 -12 -12 -11 -11 -11 -11 -11 -11 -11 -12 -12 -12 -13 -13 -13 -13 -13 -13 -13 -12 -12 -12 -12 -12 -13 -14 -13 -13 -12 -12 -12 -12 -12 -12 -12 -12 -12 -12 -12 -12 -12 -13 -13
-13 -13 -13 -12 -12 -12 -12 -12 -12 -12 -12 -12 -12 -12 -13 -13 -13 -14 -14 -14 -14 -13 -13 -13 -12 -12 -11 -13 -14 -14 -14 -13 -13 -12 -12 -12 -12 -12 -12 -12 -12 -12 -12 -12 -13 -13 -12
-13 -13 -13 -13 -13 -13 -13 -13 -13 -13 -13 -13 -13 -13 -14 -14 -14 -15 -15 -15 -14 -14 -14 -13 -13 -13 -12 -13 -13 -14 -14 -13 -13 -13 -13 -12 -12 -12 -12 -12 -12 -12 -12 -12 -13 -12 -12
-14 -14 -14 -14 -14 -15 -14 -14 -14 -14 -14 -14 -14 -14 -15 -15 -15 -16 -15 -16 -15 -15 -14 -14 -13 -13 -13 -13 -13 -13 -14 -14 -14 -14 -13 -12 -12 -12 -12 -13 -12 -12 -13 -13 -12 -12 -12
-15 -16 -16 -16 -16 -16 -15 -16 -15 -16 -15 -15 -16 -16 -16 -16 -16 -16 -16 -16 -16 -15 -15 -14 -14 -14 -14 -14 -14 -15 -14 -14 -14 -14 -13 -13 -12 -12 -12 -13 -12 -13 -14 -13 -12 -12 -12
-17 -17 -17 -17 -17 -17 -17 -17 -17 -17 -17 -17 -17 -17 -17 -17 -17 -16 -16 -16 -16 -16 -15 -15 -14 -14 -15 -16 -16 -15 -16 -15 -15 -15 -14 -13 -12 -11 -14 -13 -13 -13 -13 -13 -13 -13 -13
-18 -18 -18 -18 -18 -18 -19 -19 -19 -18 -18 -18 -18 -18 -18 -18 -18 -17 -17 -17 -17 -16 -16 -16 -15 -15 -17 -17 -17 -17 -17 -16 -16 -17 -15 -13 -12 -13 -13 -13 -13 -13 -13 -13 -13 -13 -13
-19 -19 -19 -19 -19 -19 -19 -19 -19 -19 -19 -19 -19 -19 -19 -19 -19 -19 -18 -18 -18 -18 -17 -17 -17 -17 -17 -17 -17 -17 -17 -17 -17 -17 -16 -14 -13 -14 -14 -13 -13 -13 -13 -13 -13 -14 -13
-19 -19 -19 -19 -19 -19 -19 -19 -19 -20 -20 -19 -19 -19 -20 -20 -20 -20 -20 -19 -19 -19 -18 -18 -18 -18 -18 -18 -17 -17 -18 -17 -16 -17 -16 -15 -14 -14 -14 -13 -14 -13 -14 -14 -13 -14 -13
-20 -20 -20 -19 -19 -20 -20 -20 -20 -20 -20 -20 -20 -20 -20 -20 -20 -20 -20 -20 -20 -20 -18 -18 -17 -17 -17 -17 -17 -17 -17 -17 -16 -16 -16 -15 -14 -15 -14 -14 -14 -14 -14 -13 -14 -13 -13
-20 -20 -20 -20 -20 -21 -21 -21 -21 -21 -21 -21 -20 -20 -20 -20 -20 -20 -20 -20 -20 -20 -19 -19 -18 -17 -17 -18 -18 -17 -17 -17 -17 -16 -16 -15 -15 -15 -14 -15 -14 -14 -14 -14 -14 -13 -12
-21 -21 -21 -21 -21 -21 -21 -21 -21 -21 -21 -21 -21 -21 -20 -20 -20 -20 -20 -20 -20 -20 -19 -18 -18 -18 -18 -17 -17 -17 -16 -17 -17 -16 -16 -16 -14 -15 -15 -15 -14 -14 -14 -14 -13 -13 -12
-22 -22 -22 -22 -22 -22 -22 -22 -22 -22 -22 -22 -22 -22 -21 -20 -20 -20 -20 -20 -19 -19 -19 -19 -18 -18 -18 -17 -17 -17 -17 -17 -16 -16 -16 -15 -15 -14 -15 -15 -15 -15 -15 -15 -15 -14 -13
-23 -23 -23 -23 -24 -25 -24 -24 -24 -24 -24 -24 -23 -23 -22 -22 -21 -21 -20 -20 -19 -19 -19 -18 -18 -18 -18 -18 -17 -18 -17 -17 -17 -16 -16 -15 -15 -14 -15 -15 -15 -15 -14 -15 -15 -14 -13
-24 -24 -24 -26 -26 -26 -26 -26 -26 -27 -27 -26 -25 -24 -23 -23 -22 -22 -21 -20 -20 -19 -19 -19 -18 -18 -18 -18 -18 -18 -18 -17 -17 -16 -16 -16 -15 -15 -15 -15 -15 -15 -15 -16 -15 -14 -13
-24 -24 -25 -26 -26 -27 -27 -27 -28 -28 -28 -27 -26 -25 -24 -24 -23 -22 -21 -20 -20 -20 -19 -19 -19 -19 -18 -18 -18 -19 -19 -17 -17 -17 -16 -16 -15 -16 -16 -15 -15 -16 -15 -15 -15 -14 -13
-24 -24 -24 -24 -25 -26 -27 -27 -27 -28 -28 -28 -27 -25 -25 -24 -24 -22 -21 -21 -20 -20 -20 -19 -19 -19 -19 -19 -18 -18 -18 -18 -18 -18 -17 -17 -17 -16 -16 -17 -16 -16 -15 -16 -16 -15 -14
-24 -24 -24 -24 -24 -25 -26 -27 -27 -28 -28 -28 -27 -26 -25 -25 -24 -23 -22 -21 -21 -20 -20 -20 -19 -19 -20 -20 -19 -19 -19 -19 -19 -19 -19 -18 -18 -17 -17 -18 -17 -17 -16 -16 -15 -16 -14
-24 -24 -24 -24 -24 -24 -25 -26 -26 -27 -28 -28 -27 -26 -26 -25 -24 -23 -23 -22 -21 -21 -21 -21 -20 -20 -21 -22 -22 -20 -20 -21 -21 -20 -20 -20 -19 -18 -18 -18 -18 -18 -17 -16 -16 -15 -14
-24 -24 -24 -24 -24 -24 -24 -25 -25 -26 -27 -28 -27 -26 -26 -25 -24 -23 -23 -23 -22 -22 -22 -22 -21 -22 -23 -23 -23 -22 -22 -22 -21 -21 -20 -20 -20 -19 -19 -18 -19 -18 -18 -18 -17 -15 -15
-23 -23 -23 -23 -24 -24 -24 -24 -25 -25 -26 -26 -26 -25 -25 -25 -25 -24 -24 -23 -23 -23 -23 -23 -23 -24 -23 -23 -23 -22 -22 -21 -21 -21 -20 -20 -20 -21 -19 -19 -19 -19 -19 -18 -17 -16 -15
-23 -23 -23 -23 -23 -23 -24 -24 -24 -25 -25 -24 -25 -25 -26 -25 -25 -24 -24 -25 -25 -25 -25 -24 -24 -23 -23 -23 -23 -22 -22 -21 -21 -21 -21 -20 -21 -20 -19 -19 -19 -19 -17 -18 -18 -17 -16
-23 -23 -23 -24 -24 -24 -23 -24 -24 -25 -25 -24 -24 -25 -25 -25 -25 -24 -25 -25 -25 -24 -24 -24 -23 -23 -23 -23 -22 -22 -22 -22 -20 -21 -21 -20 -20 -20 -19 -19 -18 -18 -19 -18 -18 -18 -17
-24 -24 -24 -24 -24 -24 -24 -24 -24 -25 -25 -24 -24 -24 -24 -24 -24 -24 -25 -25 -25 -24 -24 -24 -23 -23 -23 -22 -22 -21 -22 -21 -21 -21 -21 -21 -21 -21 -20 -20 -19 -19 -19 -19 -18 -18 -18
-25 -25 -24 -25 -25 -25 -25 -26 -25 -25 -25 -25 -24 -24 -24 -24 -24 -24 -24 -24 -24 -24 -24 -23 -23 -23 -23 -22 -21 -21 -21 -21 -21 -22 -22 -22 -22 -22 -21 -20 -19 -19 -19 -18 -18 -18 -18
-25 -25 -25 -25 -25 -26 -26 -26 -26 -26 -26 -26 -25 -25 -25 -24 -24 -24 -24 -24 -24 -24 -23 -23 -23 -23 -23 -22 -21 -21 -21 -21 -21 -22 -22 -21 -21 -21 -21 -20 -20 -20 -19 -19 -19 -19 -18
-26 -26 -26 -26 -26 -26 -26 -26 -26 -26 -26 -26 -25 -25 -25 -25 -25 -24 -24 -24 -24 -23 -23 -23 -23 -23 -22 -22 -21 -21 -21 -21 -21 -22 -22 -21 -21 -22 -21 -21 -20 -20 -20 -19 -19 -19 -18
-26 -26 -26 -26 -26 -26 -26 -26 -26 -26 -26 -27 -26 -26 -25 -25 -25 -24 -24 -24 -24 -24 -23 -23 -23 -23 -22 -22 -21 -21 -21 -21 -21 -21 -21 -21 -21 -21 -21 -21 -21 -20 -20 -20 -20 -19 -19
Height
5733 5732 5732 5731 5730 5731 5731 5732 5732 5732 5732 5731 5732 5733 5733 5733 5732 5733 5733 5735 5738 5741 5743 5745 5748 5749 5750 5753 5757 5753 5756 5757 5759 5761 5763 5765 5766 5766 5767 5769 5768 5771 5770 5769 5768 5764 5760
5720 5719 5718 5718 5717 5717 5717 5717 5717 5719 5719 5718 5718 5719 5719 5718 5720 5719 5721 5722 5725 5728 5731 5734 5735 5738 5742 5744 5742 5742 5745 5747 5750 5753 5755 5757 5759 5758 5760 5763 5763 5764 5764 5764 5763 5760 5756
5705 5705 5705 5704 5703 5704 5705 5703 5703 5704 5705 5704 5703 5705 5704 5704 5705 5705 5707 5709 5712 5712 5718 5721 5723 5725 5730 5738 5729 5732 5735 5737 5740 5743 5747 5749 5750 5751 5754 5757 5758 5758 5758 5759 5757 5754 5751
5690 5690 5691 5691 5688 5689 5692 5690 5690 5689 5689 5691 5689 5690 5690 5689 5689 5690 5694 5695 5697 5702 5706 5708 5710 5712 5716 5720 5716 5720 5722 5729 5731 5734 5738 5739 5740 5743 5747 5749 5752 5751 5753 5754 5750 5746 5746
5676 5675 5676 5676 5674 5673 5676 5676 5676 5674 5675 5676 5674 5675 5675 5676 5676 5676 5679 5681 5684 5688 5690 5695 5699 5700 5705 5705 5705 5708 5713 5718 5721 5725 5728 5729 5731 5736 5739 5743 5745 5746 5748 5747 5745 5741 5741
5661 5661 5660 5660 5658 5660 5661 5661 5661 5660 5661 5662 5661 5661 5661 5661 5660 5663 5665 5668 5670 5675 5678 5682 5686 5691 5692 5694 5695 5697 5701 5705 5710 5714 5717 5720 5724 5727 5730 5738 5740 5738 5738 5739 5741 5738 5735
5646 5647 5646 5645 5646 5647 5648 5647 5647 5647 5648 5648 5648 5647 5648 5648 5647 5650 5653 5656 5659 5662 5666 5669 5674 5678 5679 5681 5684 5688 5690 5692 5697 5703 5707 5712 5714 5717 5729 5729 5727 5729 5730 5732 5737 5732 5730
5632 5630 5630 5632 5632 5633 5635 5634 5634 5636 5635 5635 5635 5635 5635 5636 5637 5638 5641 5643 5646 5649 5655 5657 5660 5665 5668 5668 5675 5678 5682 5684 5687 5694 5698 5702 5704 5716 5716 5718 5719 5722 5724 5730 5731 5727 5721
5616 5614 5614 5616 5617 5618 5618 5618 5620 5620 5621 5622 5621 5621 5624 5627 5627 5627 5629 5632 5635 5638 5642 5653 5650 5652 5657 5658 5666 5672 5673 5677 5681 5683 5690 5694 5700 5702 5705 5710 5711 5716 5717 5725 5722 5718 5716
5598 5598 5599 5599 5599 5601 5601 5600 5601 5603 5605 5607 5609 5611 5613 5616 5619 5618 5619 5622 5625 5630 5630 5639 5641 5641 5646 5651 5656 5663 5662 5668 5671 5678 5681 5683 5689 5695 5699 5702 5706 5708 5714 5712 5713 5711 5712
5583 5583 5581 5582 5583 5581 5581 5581 5583 5585 5588 5591 5594 5597 5600 5605 5608 5608 5614 5615 5619 5623 5621 5627 5632 5635 5639 5646 5649 5654 5657 5658 5665 5670 5675 5679 5684 5686 5689 5694 5697 5703 5702 5704 5704 5704 5703
5565 5565 5564 5562 5561 5561 5560 5562 5564 5566 5570 5573 5577 5581 5587 5594 5595 5600 5605 5607 5613 5617 5613 5617 5622 5627 5631 5635 5639 5642 5647 5650 5654 5658 5664 5668 5673 5678 5681 5686 5688 5691 5694 5696 5698 5697 5693
5547 5546 5544 5542 5540 5539 5540 5540 5542 5545 5550 5555 5559 5565 5573 5580 5583 5591 5594 5599 5604 5604 5608 5612 5614 5619 5623 5626 5630 5634 5639 5644 5645 5649 5655 5661 5665 5670 5673 5676 5681 5683 5689 5691 5690 5689 5692
5530 5527 5525 5523 5520 5519 5518 5519 5520 5523 5528 5535 5540 5547 5557 5566 5571 5577 5581 5588 5593 5597 5601 5604 5607 5611 5614 5618 5622 5625 5629 5633 5637 5642 5645 5651 5656 5660 5666 5670 5675 5678 5682 5682 5681 5685 5687
5513 5510 5508 5505 5502 5501 5500 5499 5500 5503 5507 5514 5521 5532 5543 5550 5556 5562 5568 5575 5583 5589 5593 5597 5599 5600 5605 5608 5612 5615 5618 5623 5627 5632 5635 5639 5644 5649 5655 5660 5664 5668 5671 5680 5678 5677 5677
5498 5495 5491 5489 5488 5487 5486 5486 5485 5488 5493 5498 5506 5515 5530 5534 5541 5547 5555 5565 5570 5577 5582 5588 5591 5593 5594 5597 5600 5603 5607 5613 5618 5622 5625 5629 5634 5640 5643 5649 5654 5656 5663 5666 5666 5666 5668
5485 5483 5481 5479 5478 5477 5476 5476 5477 5479 5483 5486 5492 5501 5517 5522 5526 5532 5545 5554 5559 5566 5571 5577 5582 5584 5585 5587 5589 5592 5597 5602 5607 5611 5616 5620 5623 5630 5634 5639 5645 5649 5652 5656 5659 5660 5663
5474 5473 5472 5471 5469 5467 5466 5467 5469 5471 5474 5476 5481 5490 5505 5507 5513 5521 5533 5543 5550 5555 5559 5565 5569 5573 5576 5578 5581 5584 5590 5591 5596 5600 5604 5610 5613 5617 5625 5629 5633 5638 5643 5645 5649 5652 5655
5463 5463 5462 5461 5460 5459 5458 5458 5460 5463 5465 5468 5471 5481 5490 5494 5498 5513 5522 5530 5538 5544 5549 5553 5558 5563 5564 5567 5572 5574 5579 5582 5584 5589 5594 5599 5603 5607 5614 5621 5623 5628 5632 5635 5639 5643 5645
5452 5453 5453 5453 5453 5452 5452 5452 5451 5453 5457 5458 5463 5468 5476 5481 5491 5501 5510 5518 5527 5533 5536 5542 5548 5552 5555 5557 5560 5565 5569 5573 5575 5577 5584 5587 5592 5597 5602 5610 5614 5618 5625 5629 5632 5635 5641
5442 5443 5444 5444 5444 5445 5445 5446 5446 5446 5447 5450 5450 5457 5466 5473 5483 5493 5500 5509 5515 5520 5526 5531 5537 5543 5546 5550 5554 5557 5561 5564 5569 5571 5574 5579 5582 5586 5592 5598 5603 5609 5611 5617 5621 5629 5629
5432 5433 5433 5434 5435 5436 5437 5439 5440 5440 5440 5439 5442 5448 5457 5466 5475 5482 5489 5499 5505 5510 5517 5524 5530 5536 5540 5546 5548 5548 5550 5555 5560 5566 5568 5572 5574 5580 5586 5590 5593 5597 5603 5608 5614 5618 5621
5421 5421 5421 5422 5423 5425 5427 5429 5432 5434 5434 5434 5437 5443 5450 5458 5465 5473 5480 5490 5498 5503 5510 5517 5524 5530 5536 5539 5537 5542 5545 5550 5556 5560 5563 5565 5570 5574 5581 5583 5581 5584 5593 5598 5605 5610 5615
5407 5407 5407 5407 5409 5412 5415 5418 5422 5426 5428 5431 5435 5441 5445 5452 5458 5466 5474 5484 5492 5499 5507 5513 5519 5526 5529 5529 5533 5537 5541 5545 5547 5553 5554 5557 5562 5569 5572 5573 5571 5577 5584 5591 5596 5602 5607
5393 5393 5394 5395 5395 5397 5400 5405 5410 5416 5420 5424 5431 5435 5442 5448 5456 5463 5471 5479 5486 5493 5500 5507 5514 5519 5521 5523 5526 5531 5536 5539 5543 5545 5544 5547 5553 5559 5564 5569 5569 5572 5578 5582 5588 5595 5598
5384 5385 5386 5386 5387 5388 5389 5391 5397 5403 5411 5416 5422 5429 5435 5445 5452 5461 5467 5473 5482 5489 5496 5503 5507 5512 5516 5518 5520 5525 5530 5535 5539 5540 5540 5544 5548 5554 5559 5564 5565 5564 5571 5574 5580 5588 5591
5375 5375 5376 5376 5377 5379 5381 5383 5386 5392 5398 5406 5415 5421 5427 5433 5446 5454 5462 5469 5477 5484 5491 5496 5502 5506 5509 5512 5515 5520 5526 5530 5534 5537 5538 5540 5545 5550 5555 5556 5561 5563 5566 5570 5575 5580 5580
5364 5364 5364 5364 5365 5368 5371 5375 5379 5384 5389 5396 5408 5414 5420 5427 5437 5445 5455 5463 5471 5479 5485 5492 5496 5500 5503 5507 5510 5515 5520 5526 5530 5534 5537 5538 5540 5544 5548 5551 5556 5559 5562 5566 5568 5570 5572
5352 5350 5349 5349 5351 5353 5357 5362 5368 5375 5382 5388 5395 5405 5414 5421 5429 5437 5447 5456 5467 5473 5478 5484 5490 5494 5498 5502 5506 5510 5515 5521 5526 5530 5531 5536 5538 5541 5546 5549 5551 5553 5556 5557 5559 5562 5564
Wind_Speed
57 55 54 53 53 54 55 55 55 57 57 57 60 62 61 61 61 61 61 60 60 58 56 51 50 47 43 45 41 44 40 40 40 38 36 35 33 33 33 30 28 21 20 21 21 27 31
60 58 56 56 54 54 55 55 56 58 59 60 63 65 66 65 64 62 63 61 60 60 59 55 52 48 49 46 44 45 42 41 41 41 40 37 36 36 34 30 28 26 21 19 22 24 30
57 57 57 55 55 57 58 57 59 59 62 66 66 70 67 67 66 66 63 62 60 58 57 55 56 52 50 46 50 45 43 43 42 42 40 39 39 39 34 29 28 27 24 19 23 25 29
56 57 59 60 58 59 62 62 65 67 69 70 68 68 66 63 61 61 63 63 60 59 58 56 54 51 48 49 55 48 44 41 42 42 41 41 42 39 34 32 28 28 25 19 25 30 28
61 62 62 63 61 61 65 67 68 67 68 71 68 66 64 61 58 57 58 59 59 58 56 56 56 51 47 48 57 51 45 42 41 38 40 41 42 38 36 32 28 28 22 23 29 32 27
62 63 61 61 59 61 63 63 64 62 66 67 64 63 59 57 52 53 55 55 55 55 55 55 54 53 47 44 49 46 46 43 41 41 41 42 41 39 38 28 25 25 26 27 27 31 31
58 57 56 54 55 57 57 57 57 57 58 56 54 52 53 51 51 51 53 54 54 54 56 54 51 49 46 40 44 46 37 39 37 39 41 40 43 42 26 30 33 30 31 29 24 30 32
54 54 54 54 54 55 55 54 53 54 53 53 53 50 49 48 48 49 51 51 52 52 50 51 50 48 41 41 39 36 34 36 37 31 37 41 43 31 31 31 32 31 31 24 23 29 37
57 57 58 58 58 60 60 60 59 57 54 51 50 48 48 48 46 45 49 49 45 45 44 39 42 42 39 42 40 39 40 36 35 35 33 36 36 34 35 33 34 30 30 22 27 33 36
62 62 63 64 65 67 67 66 65 61 58 54 52 50 48 47 43 42 40 37 45 43 44 38 40 42 42 38 40 31 38 38 41 34 34 39 38 33 31 30 30 32 24 29 31 35 34
66 67 68 69 70 71 71 69 68 65 63 60 55 53 50 46 43 41 35 32 28 27 40 37 35 36 37 34 38 38 38 38 34 34 33 36 36 33 33 30 30 28 32 32 34 35 37
69 69 72 72 72 71 70 69 67 66 64 63 62 58 53 46 44 41 37 38 34 30 38 31 31 31 29 33 31 32 35 40 38 35 34 36 37 33 35 31 31 33 35 34 35 37 39
70 68 70 72 72 74 75 73 71 68 67 65 64 63 57 51 50 45 42 41 36 39 37 35 34 34 31 33 31 30 28 30 35 39 38 37 38 35 36 34 32 35 33 35 38 40 34
69 71 72 75 75 74 72 69 67 66 64 66 66 63 60 56 52 49 48 46 42 37 33 33 35 35 35 33 31 30 30 30 30 32 36 37 40 41 39 35 32 32 33 37 40 36 33
68 69 70 69 63 57 55 54 54 54 57 61 65 61 57 55 53 52 51 48 43 39 38 38 39 38 35 33 33 34 34 33 33 34 36 37 40 42 41 41 38 37 38 32 37 40 38
61 61 54 50 49 46 43 41 40 44 47 51 55 56 52 52 52 51 53 50 46 43 43 40 41 38 37 37 38 37 36 36 36 37 38 39 40 40 43 43 43 44 41 39 43 43 41
38 28 28 30 34 37 37 34 31 35 39 44 48 52 47 47 49 52 55 52 49 47 46 44 42 40 40 41 41 41 40 40 39 40 42 43 45 42 43 44 41 42 43 44 43 46 42
33 33 32 29 26 29 31 33 32 32 36 42 46 50 45 48 49 52 54 50 49 48 47 45 43 42 42 43 44 45 44 48 46 43 43 43 46 46 43 42 42 44 45 44 45 46 45
30 30 29 25 26 24 22 28 32 33 36 39 43 45 45 47 52 48 47 48 47 47 47 46 44 43 42 42 44 46 47 45 49 45 42 42 45 46 45 40 42 43 48 48 47 48 48
29 27 26 26 25 23 24 24 21 31 34 38 40 43 47 47 48 47 46 46 46 44 45 45 44 42 39 36 38 43 43 39 37 42 40 38 41 44 44 43 43 39 38 47 48 49 47
28 28 28 28 28 27 26 24 24 20 29 36 41 41 42 46 47 45 44 43 42 43 42 39 40 34 29 28 30 37 37 38 36 29 33 34 36 38 41 37 38 42 44 44 49 49 51
29 31 33 33 32 32 30 27 26 24 22 32 38 36 37 40 40 40 39 37 36 36 34 33 31 26 25 23 26 34 37 37 40 36 22 30 32 37 34 32 30 40 39 42 45 47 51
35 38 38 36 35 35 34 31 29 30 25 25 26 30 34 36 36 35 36 28 25 25 26 28 27 26 23 24 32 32 37 37 33 35 35 30 33 28 26 32 40 39 43 41 43 47 48
40 42 43 44 43 42 40 39 34 34 34 25 19 22 28 28 30 27 25 31 26 17 25 26 23 25 23 28 29 29 28 30 34 29 34 30 44 34 27 10 23 32 40 39 38 41 44
36 26 21 21 24 33 43 46 43 37 42 36 27 29 25 25 24 23 28 29 27 23 24 24 20 20 22 27 29 27 24 25 21 19 23 30 43 45 27 16 13 25 25 31 36 36 39
22 23 24 23 24 23 22 34 45 42 45 48 39 35 34 33 32 28 27 26 23 21 20 19 22 21 22 26 30 27 23 20 18 12 15 28 32 41 37 29 21 10 20 21 30 35 31
24 26 28 28 30 29 28 26 27 37 42 50 52 46 43 41 35 33 29 27 26 26 22 23 23 23 26 29 31 30 24 21 16 10 9 19 33 35 33 34 22 17 10 17 28 28 32
29 30 31 31 31 34 34 33 32 29 34 43 52 57 56 52 47 41 37 33 30 26 24 25 25 25 29 28 32 32 28 22 16 10 7 9 12 15 23 19 30 19 15 12 16 18 22
32 34 36 37 37 37 39 39 38 36 35 34 40 53 53 56 55 50 45 40 35 31 33 30 25 26 29 29 31 32 29 23 18 13 11 9 15 16 16 13 16 18 17 20 18 16 15
Wind_Direction
278 276 275 275 276 274 275 276 277 278 276 275 272 270 269 271 270 272 272 273 273 274 273 269 268 270 266 265 259 253 249 248 248 249 247 251 256 260 264 268 274 275 265 279 285 286 287
275 273 273 272 272 272 273 272 273 273 273 273 272 270 269 269 272 274 274 274 274 272 271 268 265 265 267 263 256 252 249 244 246 247 248 253 256 259 261 266 269 270 272 277 285 279 280
269 269 270 270 271 269 270 269 267 267 267 267 267 268 270 270 270 272 273 274 273 270 269 266 264 261 263 263 256 250 250 245 243 244 248 249 252 257 260 263 265 270 270 278 287 275 277
266 267 268 269 268 266 267 267 267 267 266 268 270 270 272 272 271 272 272 271 270 270 270 266 263 259 256 255 258 249 245 246 245 244 246 248 251 253 258 261 262 264 271 274 275 276 283
266 265 265 267 268 268 267 269 268 270 271 269 271 272 274 275 274 272 271 271 270 268 263 265 262 259 255 253 255 252 242 240 244 243 244 245 247 253 256 259 263 267 269 264 266 276 290
267 267 267 268 270 270 270 271 271 272 271 270 270 271 272 272 269 270 269 268 266 264 261 261 260 260 258 252 253 253 240 234 239 240 240 244 248 251 254 260 270 268 254 258 269 276 288
268 268 268 269 270 269 269 269 270 271 270 271 271 271 270 269 269 266 265 262 263 261 262 258 256 257 254 248 245 248 236 236 232 234 239 242 247 250 261 251 251 251 250 253 268 278 282
271 273 274 274 274 273 273 271 271 271 272 273 274 274 274 273 271 266 264 262 262 260 256 253 253 251 248 247 244 242 238 238 238 236 239 239 246 253 246 243 249 250 252 257 260 271 274
273 273 273 274 273 273 273 271 270 269 270 272 272 272 271 268 271 268 265 260 259 260 262 247 249 250 241 247 238 241 234 232 239 239 239 242 245 243 240 239 246 247 251 253 256 260 268
274 274 274 275 275 274 273 272 270 268 265 265 266 266 267 265 263 262 264 256 253 255 256 248 241 243 244 241 238 232 244 239 232 233 238 241 243 247 249 243 246 251 252 245 252 257 266
272 273 274 275 274 273 273 272 272 270 265 260 258 259 260 260 259 257 256 257 251 242 256 255 247 248 249 247 248 244 234 247 244 238 243 247 244 246 244 244 239 245 243 246 249 257 265
274 275 275 275 275 275 275 274 272 268 264 260 255 253 252 252 250 251 249 250 250 252 249 256 252 248 247 247 246 250 246 242 245 246 242 245 245 241 244 240 238 235 236 243 250 257 262
274 274 275 277 278 278 277 276 272 267 260 256 254 251 247 245 249 247 247 251 247 246 252 254 257 260 259 258 252 251 251 245 245 246 245 244 248 244 245 244 240 243 242 246 251 256 270
276 279 281 281 281 280 278 275 270 265 257 249 248 248 247 244 245 248 245 247 246 246 247 253 259 258 258 261 263 260 257 253 247 241 243 245 243 244 246 248 249 246 244 245 252 259 264
280 283 284 283 281 278 278 277 270 259 251 244 243 244 244 247 244 244 244 244 243 243 245 251 256 257 263 264 262 259 255 251 250 246 244 244 241 242 242 242 241 244 244 250 255 257 259
284 284 282 280 278 276 278 279 266 253 246 242 240 239 239 241 243 242 242 243 244 245 247 247 253 258 264 266 265 262 258 254 251 250 249 250 249 245 247 242 240 241 239 236 241 247 249
275 280 287 288 285 282 273 273 266 255 247 242 238 235 233 235 239 241 239 241 244 245 246 246 248 252 258 261 263 263 262 258 255 251 249 249 249 246 246 248 243 240 242 241 242 248 251
269 274 276 279 287 285 278 269 262 252 247 245 240 235 230 235 237 240 239 238 241 246 249 250 251 253 255 258 260 259 257 258 256 254 252 247 250 249 246 246 247 240 238 235 238 246 252
265 269 271 274 274 278 282 273 265 254 248 246 243 237 231 235 236 238 240 240 241 243 248 250 251 252 257 258 258 256 253 250 254 253 252 250 247 248 247 243 243 244 242 238 238 239 242
264 263 267 272 273 274 275 275 277 251 251 249 244 239 233 233 235 236 237 240 240 242 246 249 250 251 251 251 248 247 246 242 247 252 248 249 250 247 246 243 241 242 247 245 239 244 251
261 265 271 272 269 267 269 267 268 271 241 244 246 237 232 234 233 237 238 239 241 243 244 244 246 245 235 237 244 246 241 237 236 248 249 243 246 246 243 248 240 239 236 238 241 244 245
266 268 270 270 266 264 260 259 255 261 254 239 242 239 231 230 233 232 237 238 240 238 237 233 232 220 226 237 244 235 236 232 228 238 252 250 242 231 244 246 249 240 237 239 240 242 242
269 269 269 266 260 255 254 249 247 245 252 253 247 238 231 231 231 230 229 225 215 211 209 201 212 223 236 240 239 236 236 236 239 240 251 248 224 229 235 250 255 238 235 235 238 242 247
270 271 270 268 262 254 248 245 240 232 241 240 236 231 226 223 224 226 219 203 198 202 200 211 221 224 231 238 238 239 238 238 241 244 258 252 223 227 228 316 224 238 233 234 242 243 248
273 267 267 270 268 260 252 246 241 224 225 235 220 216 206 202 200 193 190 194 210 212 213 222 228 228 232 239 236 237 234 230 240 258 249 232 221 219 235 284 288 230 228 235 235 238 245
263 262 262 262 262 256 255 245 240 240 217 220 228 218 212 207 205 212 224 227 227 224 228 228 236 234 234 237 235 235 233 235 242 254 243 222 227 233 242 250 251 147 204 207 226 229 238
267 265 264 261 256 247 243 238 237 231 229 218 219 228 228 227 221 220 218 225 225 234 236 232 236 231 232 232 233 235 233 237 240 246 256 226 228 241 254 248 246 289 228 218 234 235 237
272 270 265 258 252 245 244 244 237 228 226 225 218 220 226 230 231 230 229 225 228 229 229 234 233 228 231 229 229 231 233 233 241 243 215 221 235 243 248 253 241 264 271 241 228 234 240
278 273 268 261 258 255 244 239 238 232 223 220 221 218 220 228 233 232 233 231 229 231 232 230 230 224 229 229 229 237 238 233 232 234 240 234 222 222 229 234 234 235 243 261 255 244 238